Theta_e
325 328 331 320 314 316 318 322 322 323 327 335 335 329 328 326 329 341 343 343 341 338 338 339 339 333 334 334 331 330 330 330 331 330 326 326 325 325 325 327 327 326 328
322 327 332 331 316 316 319 322 323 327 332 336 333 328 326 327 334 343 344 340 338 338 337 337 336 333 333 330 328 328 329 329 330 331 327 326 326 327 327 327 327 327 328
321 326 333 335 321 317 320 326 329 333 335 334 329 325 327 328 337 344 343 340 337 337 336 337 333 332 330 328 327 327 328 327 326 330 328 327 325 327 327 327 326 323 324
321 327 333 335 322 319 323 329 331 332 330 327 324 325 330 332 341 344 341 337 337 338 337 332 331 329 327 327 327 328 327 327 326 328 328 327 327 328 327 327 323 325 325
320 326 333 335 325 320 323 329 332 329 325 325 325 330 333 336 342 343 338 336 338 337 333 331 329 328 328 328 327 328 327 326 326 328 327 327 327 328 326 327 324 324 324
319 325 329 335 327 319 323 329 329 327 325 325 328 332 333 338 343 338 337 336 337 333 330 330 329 329 330 329 328 328 328 326 326 326 327 327 326 327 327 327 325 327 325
322 325 327 338 333 322 325 329 326 324 325 327 332 333 332 339 338 338 336 336 331 329 330 330 330 330 330 329 328 328 327 326 326 326 327 327 327 327 328 328 327 326 324
322 323 327 339 337 334 326 326 325 326 327 331 334 332 339 339 339 337 335 327 326 328 329 329 330 330 329 328 328 328 326 326 326 326 327 327 326 326 327 326 326 324 323
321 322 327 337 341 334 330 330 330 330 333 335 334 335 339 340 338 335 328 327 327 328 329 330 330 328 327 327 327 326 327 325 326 326 326 326 326 325 325 326 326 324 323
324 324 326 334 342 335 333 331 331 334 336 335 339 340 338 338 329 329 328 327 328 328 330 330 329 328 328 327 326 326 326 326 326 326 327 327 326 325 325 325 326 325 321
323 324 326 333 340 337 338 340 340 336 337 339 340 338 334 329 330 329 329 328 329 329 330 329 327 328 327 325 325 326 327 326 326 325 326 326 326 325 325 324 324 324 323
323 325 329 333 337 337 338 339 339 337 339 340 333 329 330 331 331 330 329 330 330 328 326 327 328 327 326 326 325 325 326 326 326 326 326 326 325 325 325 323 323 322 324
322 327 330 333 336 336 336 337 337 337 337 330 330 330 331 331 330 330 330 329 325 326 326 327 327 326 326 326 325 325 326 327 326 323 324 323 323 322 322 323 322 323 322
323 328 333 332 333 334 334 335 335 334 331 330 331 331 330 329 330 330 327 325 327 326 325 326 327 325 325 326 326 326 325 325 324 324 323 322 323 323 323 322 323 322 322
323 330 330 331 332 332 334 335 335 333 331 330 331 330 329 330 330 327 326 327 327 325 325 326 326 325 327 325 326 324 323 323 322 322 322 323 323 323 322 323 323 320 321
324 328 330 332 333 333 333 331 330 329 330 331 331 330 330 329 328 327 328 328 326 325 325 326 325 325 326 325 323 323 322 322 322 322 323 323 324 324 322 322 322 321 322
326 326 330 332 332 330 329 330 331 331 331 330 330 328 327 326 328 328 327 326 326 325 326 325 326 325 325 324 323 322 322 322 322 322 322 322 323 323 324 323 322 323 323
325 323 325 326 328 329 330 330 330 330 330 329 326 324 326 327 326 325 324 324 325 325 326 325 326 325 324 324 323 323 323 321 320 321 321 322 322 322 322 323 322 322 323
326 326 327 329 329 329 330 330 330 330 329 327 326 325 326 324 323 323 323 324 324 326 325 325 325 325 324 324 324 324 323 322 320 320 320 320 320 321 321 322 323 323 323
330 330 330 330 329 329 330 331 330 330 329 326 325 325 324 323 322 322 323 324 324 326 326 326 324 324 324 324 322 322 321 320 320 320 319 319 319 320 320 321 322 323 323
329 330 330 329 330 330 331 331 330 329 329 326 325 324 324 324 322 322 325 325 325 325 324 324 324 324 322 322 321 321 321 321 320 320 320 320 320 320 321 321 321 321 322
329 330 330 330 331 330 330 330 330 329 329 328 326 326 326 323 322 323 322 322 323 323 324 324 324 323 322 321 322 322 322 321 320 320 321 321 322 322 322 323 323 322 322
331 331 330 330 330 330 329 329 329 329 329 328 326 327 325 323 323 324 323 323 322 322 323 324 324 323 323 323 323 322 321 320 320 320 321 321 321 322 323 324 323 322 322
330 329 330 330 329 328 328 328 328 328 328 327 327 326 323 323 322 322 323 325 323 322 322 322 323 324 323 324 323 322 321 321 321 322 323 322 322 324 324 324 325 325 324
329 329 330 329 328 327 327 327 327 328 327 327 327 324 323 323 323 323 324 325 324 323 323 323 324 324 324 323 323 323 323 323 323 323 324 325 325 324 325 324 325 324 323
329 329 330 329 328 327 327 326 326 327 327 326 324 323 323 323 324 324 325 324 324 324 323 323 323 323 323 323 324 324 324 324 325 325 324 324 324 324 325 325 325 323 323
Wind_Speed
23 27 33 36 39 39 38 44 44 42 32 31 35 29 27 28 25 25 23 20 22 23 22 21 20 17 16 14 14 14 14 12 10 10 10 9 8 8 9 9 9 12 11
28 29 30 35 39 42 39 43 44 36 30 30 30 29 28 28 26 26 23 22 23 23 22 21 20 18 16 14 14 14 14 13 10 9 10 9 8 7 9 9 10 10 13
29 33 31 34 39 42 39 40 33 27 28 30 30 29 32 28 28 26 21 23 22 24 22 21 19 18 16 14 14 14 14 13 13 9 8 9 7 8 9 10 10 11 14
31 35 29 31 38 41 39 33 29 30 30 31 31 31 30 30 28 25 23 21 23 23 20 18 17 16 14 14 14 14 14 12 13 10 9 10 10 11 11 10 11 13 14
33 35 24 28 35 38 39 33 31 31 30 31 31 31 30 28 27 23 25 23 24 23 20 18 18 14 13 14 14 15 13 13 14 12 12 13 15 15 16 14 13 14 15
34 33 26 24 29 36 37 36 34 33 32 31 31 30 29 28 25 25 24 23 23 20 19 20 18 16 14 13 14 15 14 14 16 16 17 14 18 19 18 17 16 17 17
32 33 26 19 23 32 34 36 35 34 33 32 31 30 28 27 27 28 24 23 19 19 18 19 18 16 14 13 14 14 14 15 15 13 17 16 18 21 20 18 17 16 18
28 30 22 16 19 27 35 37 36 33 33 32 31 28 29 29 30 25 24 20 18 17 17 16 15 14 14 14 14 14 14 15 15 14 12 11 15 13 16 16 19 18 18
33 25 17 11 19 26 31 31 30 31 31 30 29 29 32 32 28 26 26 20 19 17 16 16 14 13 12 12 13 14 13 14 15 14 13 11 13 12 16 14 19 17 19
27 22 15 7 19 24 27 29 27 28 30 31 33 33 31 31 28 28 25 20 20 19 18 15 13 13 11 11 11 11 11 13 13 14 14 15 16 13 14 11 13 17 17
22 19 13 8 17 20 21 23 29 32 34 35 36 33 30 28 28 26 23 21 18 18 16 14 13 12 11 11 11 9 10 12 15 14 12 13 17 16 18 16 14 11 13
17 15 14 14 19 24 24 28 33 34 37 40 36 32 29 28 26 25 22 18 16 14 13 12 12 12 12 12 14 10 11 13 14 14 14 14 16 18 19 17 16 16 15
15 13 14 18 20 23 29 34 35 36 42 36 34 31 28 27 25 22 19 16 15 14 11 9 12 12 13 13 12 11 13 14 14 15 11 10 15 17 18 17 15 14 14
16 12 19 19 23 27 32 33 35 39 37 35 33 31 29 26 24 21 19 20 17 12 10 8 12 12 13 13 14 14 11 11 12 13 12 14 16 17 16 17 15 13 12
14 12 19 25 32 35 36 34 38 34 33 33 30 28 26 24 22 19 20 21 17 13 11 11 15 16 18 17 17 13 9 8 12 14 15 16 16 15 14 13 15 12 10
19 14 28 33 35 34 35 35 30 27 24 23 23 21 20 17 17 18 18 17 15 13 12 13 15 16 19 21 18 14 10 8 13 14 15 15 15 14 15 14 14 12 11
21 21 25 30 31 33 32 34 34 29 24 20 19 16 14 18 19 18 17 16 14 14 14 14 15 18 22 21 18 14 12 9 12 12 13 13 13 14 15 14 13 14 13
23 29 28 19 25 28 31 31 29 27 27 27 21 18 17 20 19 17 15 15 16 14 12 13 16 19 21 20 18 15 12 12 10 11 12 13 12 15 16 15 14 13 12
21 25 32 28 23 27 28 28 27 28 28 27 24 23 22 19 16 14 12 13 14 14 14 13 17 18 21 18 16 14 10 11 11 11 11 11 10 12 12 13 14 12 11
28 29 29 28 31 29 27 28 28 29 29 27 26 26 24 18 14 15 13 12 13 13 13 13 16 15 17 15 13 12 11 10 9 10 10 10 9 10 12 11 11 10 10
32 32 32 31 28 27 27 27 28 30 29 28 25 23 20 16 13 16 13 12 12 12 12 16 17 17 17 15 14 12 11 11 9 10 11 11 10 9 9 9 10 12 12
29 28 26 24 27 26 25 25 25 27 27 28 26 22 19 14 18 15 14 13 12 13 13 16 14 19 17 15 13 11 10 11 10 9 9 9 10 9 9 9 9 10 13
26 25 26 26 24 23 24 23 24 25 26 30 28 25 21 19 19 17 13 12 11 13 15 15 15 14 18 15 15 13 11 10 9 9 9 9 9 8 8 8 7 9 9
25 26 25 24 23 22 23 24 24 25 26 33 27 26 22 24 21 16 11 14 13 13 13 14 14 14 14 18 17 15 12 9 8 7 8 9 10 10 7 6 7 8 9
25 26 26 24 23 24 24 26 28 30 33 32 30 24 25 23 19 16 10 16 13 14 15 15 15 14 15 16 15 15 14 13 11 10 9 9 10 10 10 12 8 8 9
24 23 25 26 24 25 27 30 32 33 31 28 25 25 26 23 19 15 15 13 15 14 14 14 13 12 12 12 11 11 12 13 9 7 7 8 8 6 6 6 9 10 9
Wind_Direction
303 291 276 259 246 245 247 232 232 241 243 231 227 236 241 241 231 221 220 225 208 214 217 216 223 224 223 225 232 233 231 230 233 252 251 252 251 243 230 225 226 201 207
315 299 279 258 241 241 242 230 230 237 226 219 224 236 235 231 223 220 219 210 200 212 211 214 221 223 223 224 228 225 224 226 229 234 244 247 243 220 212 227 207 196 184
316 309 281 259 235 234 235 224 222 216 208 216 227 226 226 222 218 215 217 199 207 209 209 213 226 223 218 223 217 219 220 231 237 224 236 243 229 205 200 200 201 190 188
318 313 283 264 229 229 227 218 213 203 211 218 221 221 218 215 213 211 198 199 207 205 206 219 223 217 218 212 215 217 218 226 231 219 221 232 215 195 194 200 193 187 182
315 310 298 274 232 225 222 212 204 208 213 218 217 211 210 210 210 207 192 199 205 202 210 220 208 208 208 213 218 219 222 225 231 218 218 226 207 200 197 198 191 179 176
314 303 315 271 229 216 214 209 204 208 213 212 209 207 206 208 208 193 189 198 197 208 214 207 207 210 215 222 222 225 231 234 235 234 229 217 217 205 200 202 191 170 165
314 301 313 252 218 209 204 204 203 207 207 205 202 203 205 201 190 184 191 194 202 205 206 206 209 217 225 229 226 230 231 236 232 238 237 221 215 206 200 200 195 177 181
308 296 305 231 203 190 194 198 197 199 200 199 198 200 195 184 180 185 183 184 185 186 194 203 213 225 230 227 229 232 237 244 228 213 208 228 214 201 203 208 196 191 176
294 296 295 229 197 189 186 188 187 190 194 195 194 190 184 178 180 179 178 180 188 195 203 211 219 226 222 222 233 239 230 212 217 210 204 193 182 189 203 198 194 192 179
307 305 288 235 200 184 179 183 190 195 190 185 183 180 178 178 176 177 183 189 196 204 210 216 222 218 219 223 226 220 210 207 193 189 189 182 184 185 188 199 213 199 188
293 295 275 247 201 195 192 194 186 185 182 180 173 169 172 177 176 181 191 198 205 210 216 220 215 213 208 202 201 200 194 188 189 189 198 198 194 196 190 192 195 192 190
296 281 255 228 209 203 199 195 188 183 175 163 163 166 171 176 183 188 194 200 209 215 205 206 206 199 197 201 197 194 193 193 194 198 203 205 206 195 194 194 191 193 192
283 269 224 227 214 206 198 187 178 175 159 161 165 169 172 175 181 186 191 198 191 184 187 195 189 192 193 193 189 191 189 190 201 200 200 208 190 191 195 191 191 203 209
256 250 206 221 196 186 186 173 169 161 159 163 168 170 171 176 182 188 190 184 177 178 191 196 188 184 181 178 164 154 160 186 206 207 197 191 185 179 181 185 193 199 200
226 187 201 184 159 157 159 162 163 165 169 167 170 174 177 181 187 191 187 180 178 184 189 186 181 176 172 168 158 156 155 164 167 168 175 179 177 181 183 189 187 184 187
197 161 164 166 159 153 150 148 156 160 164 169 173 179 180 184 180 177 177 173 179 188 187 186 182 182 175 168 163 164 162 162 174 182 186 191 188 190 193 193 195 193 192
189 171 154 161 154 156 154 155 156 158 161 163 157 158 174 175 169 169 170 174 182 182 186 182 181 178 175 172 168 170 176 168 176 180 186 192 196 193 198 202 208 208 196
177 179 169 182 153 154 156 157 157 155 149 146 148 146 149 156 155 163 167 170 170 171 179 174 175 176 176 179 180 181 179 173 172 177 180 185 191 203 207 211 216 217 219
180 170 161 165 157 158 158 158 160 157 154 150 147 145 146 149 152 159 168 178 179 176 180 174 167 174 175 184 187 187 180 175 175 184 194 200 204 210 212 217 218 220 224
166 165 149 160 167 165 165 166 164 162 157 154 151 150 149 148 146 151 163 173 174 175 181 170 172 173 170 176 169 174 174 182 185 195 203 210 214 212 212 212 210 219 225
157 160 165 164 168 170 170 171 168 164 162 160 157 157 155 150 146 150 151 152 163 168 182 175 174 170 167 167 175 178 188 190 184 193 191 194 196 194 202 212 221 226 231
154 151 150 152 163 165 166 166 166 170 170 166 161 164 160 148 143 139 134 138 149 153 158 169 167 176 176 177 180 182 184 181 186 185 186 192 195 201 210 220 228 227 228
140 143 150 153 155 158 161 162 165 170 170 170 164 161 156 148 146 136 139 141 146 156 159 163 171 172 182 191 187 181 175 177 185 195 201 208 217 220 228 232 225 227 217
144 149 150 150 153 155 158 160 161 160 161 157 159 158 158 156 150 146 153 147 153 150 156 162 165 173 180 180 183 188 193 196 202 214 218 221 229 244 238 252 253 244 232
150 151 152 153 151 151 149 149 151 154 155 157 160 159 156 154 155 153 143 149 146 142 148 152 161 168 176 186 194 201 207 209 213 222 227 221 214 230 230 231 228 221 227
151 154 157 156 153 152 151 151 154 156 156 159 159 157 156 156 157 150 144 144 144 146 146 152 155 161 171 173 180 188 192 187 171 182 214 240 239 220 191 201 214 222 210